Weather History for LGLM - October, 2013

Change the Weather History Date:

Thursday, October 24, 2013

  Actual Average Record
Temperature  
Mean Temperature 62 °F -  
Max Temperature 66 °F 62 °F 77 °F (2003)
Min Temperature 58 °F 49 °F 44 °F (2000)
Degree Days  
Heating Degree Days 3    
Growing Degree Days 12 (Base 50)    
Moisture  
Dew Point 52 °F    
Average Humidity 70    
Maximum Humidity 77    
Minimum Humidity 51    
Precipitation  
Precipitation 0.00 in 0.09 in - ()
Sea Level Pressure  
Sea Level Pressure 30.24 in    
Wind  
Wind Speed 13 mph ()    
Max Wind Speed 22 mph    
Max Gust Speed 31 mph    
Visibility 6.1 miles    
Events      
Averages and records for this station are not official NWS values.
T = Trace of Precipitation, MM = Missing Value Source: Averaged Metar Reports

Daily Weather History Graph

Daily Weather History Graph

Search for Another Location

Airport or City:

Trip Planner

Search our weather history database for the weather conditions in past years. The results will help you decide how hot, cold, wet, or windy it might be!

Date:

Astronomy

Oct. 24, 2013 Rise Set
Actual Time 7:38 AM EEST 6:26 PM EEST
Civil Twilight 7:11 AM EEST 6:54 PM EEST
Nautical Twilight 6:39 AM EEST 7:26 PM EEST
Astronomical Twilight 6:08 AM EEST 7:57 PM EEST
Moon 10:34 PM EEST (10/24) 12:26 PM EEST (10/24)
Length of Visible Light 11h 43m
Length of Day
10h 47m
Waning Gibbous, 74% of the Moon is Illuminated
Oct 24
Waning Gibbous
Oct 27
Last Quarter
Nov 3
New
Nov 10
First Quarter
Nov 17
Full

Hourly Weather History & Observations

Time (EEST) Temp. Dew Point Humidity Pressure Visibility Wind Dir Wind Speed Gust Speed Precip Events Conditions
12:20 AM 59.0 °F 51.8 °F 77% 30.27 in - NE 6.9 mph - N/A   Unknown
12:50 AM 62.6 °F 51.8 °F 68% 30.27 in - NE 11.5 mph - N/A   Unknown
1:20 AM 62.6 °F 51.8 °F 68% 30.27 in - NE 12.7 mph - N/A   Unknown
1:50 AM 60.8 °F 51.8 °F 72% 30.24 in - NE 11.5 mph - N/A   Unknown
2:20 AM 60.8 °F 53.6 °F 77% 30.24 in - NE 10.4 mph - N/A   Unknown
2:50 AM 60.8 °F 53.6 °F 77% 30.24 in - NE 13.8 mph - N/A   Clear
3:20 AM 60.8 °F 53.6 °F 77% 30.24 in - NNE 13.8 mph - N/A   Unknown
3:50 AM 60.8 °F 53.6 °F 77% 30.24 in - NE 11.5 mph - N/A   Unknown
4:20 AM 60.8 °F 51.8 °F 72% 30.24 in - NNE 10.4 mph - N/A   Unknown
4:50 AM 60.8 °F 51.8 °F 72% 30.24 in - NNE 17.3 mph - N/A   Unknown
5:20 AM 59.0 °F 51.8 °F 77% 30.24 in - NE 15.0 mph - N/A   Unknown
5:50 AM 59.0 °F 51.8 °F 77% 30.24 in - NE 16.1 mph - N/A   Clear
6:20 AM 59.0 °F 51.8 °F 77% 30.24 in - NE 16.1 mph - N/A   Clear
6:50 AM 59.0 °F 51.8 °F 77% 30.24 in - NE 17.3 mph - N/A   Clear
7:20 AM 59.0 °F 51.8 °F 77% 30.24 in - NE 17.3 mph - N/A   Clear
7:50 AM 59.0 °F 51.8 °F 77% 30.24 in - NNE 17.3 mph - N/A   Clear
8:20 AM 59.0 °F 51.8 °F 77% 30.24 in - NE 18.4 mph - N/A   Clear
8:50 AM 60.8 °F 51.8 °F 72% 30.24 in - NE 17.3 mph - N/A   Clear
9:00 AM 60 °F 53 °F 69% 30.27 in 6 mi NE 17.3 mph - -  
9:20 AM 60.8 °F 51.8 °F 72% 30.27 in 6.2 mi NE 20.7 mph - N/A   Partly Cloudy
9:50 AM 62.6 °F 51.8 °F 68% 30.27 in 6.2 mi NE 19.6 mph 31.1 mph N/A   Partly Cloudy
10:20 AM 62.6 °F 51.8 °F 68% 30.27 in 6.2 mi NE 17.3 mph 28.8 mph N/A   Partly Cloudy
10:50 AM 62.6 °F 51.8 °F 68% 30.27 in 6.2 mi NE 17.3 mph 28.8 mph N/A   Partly Cloudy
11:20 AM 62.6 °F 51.8 °F 68% 30.27 in 6.2 mi NE 17.3 mph 28.8 mph N/A   Partly Cloudy
11:50 AM 64.4 °F 51.8 °F 64% 30.27 in - NE 17.3 mph 28.8 mph N/A   Clear
12:20 PM 64.4 °F 51.8 °F 64% 30.27 in - NE 19.6 mph 31.1 mph N/A   Clear
12:50 PM 66.2 °F 51.8 °F 60% 30.24 in - NE 21.9 mph - N/A   Clear
1:20 PM 66.2 °F 51.8 °F 60% 30.24 in - NE 18.4 mph 29.9 mph N/A   Clear
1:50 PM 66.2 °F 51.8 °F 60% 30.24 in - NE 18.4 mph 29.9 mph N/A   Clear
2:20 PM 66.2 °F 51.8 °F 60% 30.24 in - NE 20.7 mph - N/A   Clear
2:50 PM 66.2 °F 53.6 °F 64% 30.24 in - NE 18.4 mph - N/A   Clear
3:00 PM 67 °F 53 °F 51% 30.24 in 6 mi NE 18.4 mph - -  
3:20 PM 66.2 °F 53.6 °F 64% 30.21 in - NE 18.4 mph - N/A   Clear
3:50 PM 66.2 °F 53.6 °F 64% 30.21 in - NE 18.4 mph - N/A   Clear
4:20 PM 66.2 °F 53.6 °F 64% 30.21 in - NE 18.4 mph - N/A   Clear
4:50 PM 66.2 °F 51.8 °F 60% 30.21 in - NE 16.1 mph - N/A   Clear
5:20 PM 66.2 °F 51.8 °F 60% 30.21 in - NE 16.1 mph - N/A   Clear
5:50 PM 64.4 °F 51.8 °F 64% 30.21 in - NE 17.3 mph - N/A   Clear
6:20 PM 64.4 °F 53.6 °F 68% 30.21 in - NE 13.8 mph - N/A   Clear
6:50 PM 62.6 °F 53.6 °F 72% 30.21 in - NE 10.4 mph - N/A   Clear
7:20 PM 62.6 °F 53.6 °F 72% 30.21 in - NE 10.4 mph - N/A   Clear
7:50 PM 62.6 °F 53.6 °F 72% 30.21 in - NE 10.4 mph - N/A   Clear
8:20 PM 62.6 °F 53.6 °F 72% 30.21 in - NE 10.4 mph - N/A   Clear
8:50 PM 62.6 °F 53.6 °F 72% 30.21 in - NE 11.5 mph - N/A   Clear
9:00 PM 63 °F 54 °F 65% 30.22 in 6 mi NE 11.5 mph - -  
9:20 PM 62.6 °F 53.6 °F 72% 30.21 in - NE 12.7 mph - N/A   Unknown
9:50 PM 62.6 °F 53.6 °F 72% 30.21 in - NE 11.5 mph - N/A   Unknown
10:20 PM 60.8 °F 51.8 °F 72% 30.21 in - NNE 12.7 mph - N/A   Unknown
10:50 PM 60.8 °F 51.8 °F 72% 30.21 in - NE 11.5 mph - N/A   Unknown
11:20 PM 60.8 °F 51.8 °F 72% 30.21 in - NNE 10.4 mph - N/A   Unknown
11:50 PM 60.8 °F 51.8 °F 72% 30.21 in - NE 12.7 mph - N/A   Unknown